Regional Weather Roundup
Issued by NWS

Home | Current Version | Previous Version | Graphics & Text | Print | Product List | Glossary On
Versions: 1 2 3 4 5 6 7 8 9 10 11 12 13 14 15 16 17 18 19 20 21 22 23 24 25 26 27 28 29 30 31 32 33 34 35 36 37 38 39 40 41 42 43 44 45 46 47 48 49 50
000
ASUS43 KIND 240159
RWRIN

WEATHER ROUNDUP FOR INDIANA
NATIONAL WEATHER SERVICE INDIANAPOLIS IN
1000 PM EDT MON OCT 23 2017

NOTE: "FAIR" INDICATES FEW OR NO CLOUDS BELOW 12,000 FEET WITH NO
SIGNIFICANT WEATHER AND/OR OBSTRUCTIONS TO VISIBILITY.

* - STATION DOES NOT REPORT WEATHER SUCH AS PRECIPITATION OR FOG.

+ - STATION NOT QUALITY CONTROLLED BY THE NATIONAL WEATHER SERVICE.
    USE DATA WITH CAUTION...ESPECIALLY DEWPOINT AND RELATIVE
    HUMIDITY OBSERVATIONS.

INZ001>003-010>013-019-020-240300-
NORTHWEST INDIANA

CITY           SKY/WX    TMP DP  RH WIND       PRES   REMARKS
GARY /AIRPORT/ CLOUDY    52  50  93 CALM      29.66F
MICHIGAN CITY+ CLOUDY    50  50 100 SW9       29.66S
MONTICELLO +   CLOUDY    50  49  95 W8        29.69F
RENSSELAER +   CLOUDY    50  46  87 SW7       29.68F

$$

LMZ046-743>745-240300-
SOUTHERN LAKE MICHIGAN

STATION/POSITION TIME  TEMP    WIND        PRES    WAVE
                       AIR SEA DIR/SP/G            HT
                 (UTC) (F)     (DEG/KT/KT) (MB)    (FT)
BURNS HARBOR     0140   53     220/ 11/ 14 1005.1S
MICHIGAN CITY    0130   53     240/ 17/ 19   N/A
5NW MICH CITY    0150   54 57  250/ 16/ 21   N/A     5

$$

INZ004-005-014>016-021>024-240300-
NORTH CENTRAL INDIANA

CITY           SKY/WX    TMP DP  RH WIND       PRES   REMARKS
GOSHEN         LGT RAIN  52  48  86 W21       29.62S
SOUTH BEND     LGT RAIN  51  50  96 W10       29.65R

$$

INZ006>009-017-018-025>027-240300-
NORTHEAST INDIANA

CITY           SKY/WX    TMP DP  RH WIND       PRES   REMARKS
FORT WAYNE     LGT RAIN  51  48  89 W16G24    29.62S
KENDALLVILLE + RAIN      51  51  97 W14G23    29.59S

$$

INZ028-029-035-036-043>045-051>053-240300-
WEST CENTRAL INDIANA

CITY           SKY/WX    TMP DP  RH WIND       PRES   REMARKS
GREENCASTLE +  CLOUDY    48  46  93 CALM      29.74F
LAFAYETTE      CLOUDY    50  50 100 SW3       29.70F
TERRE HAUTE    CLOUDY    51  48  89 S3        29.75F

$$

INZ030>032-037>040-046>048-054>057-064-065-240300-
CENTRAL INDIANA

CITY           SKY/WX    TMP DP  RH WIND       PRES   REMARKS
COLUMBUS       PTCLDY    46  45  93 SW6       29.77R
GREENWOOD *+   MOCLDY    50  48  91 SW5       29.75R
INDIANAPOLIS   CLOUDY    49  47  93 SW13      29.74R
-EAGLE CREEK   MOCLDY    49  46  90 SW6       29.73R
KOKOMO +       LGT RAIN  50  49  96 W15       29.71R
MT COMFORT *+  CLOUDY    46  46 100 SW8       29.74R
SHELBYVILLE    MOCLDY    48  43  82 SW8       29.74R

$$

INZ033-034-041-042-049-050-058-059-240300-
EAST CENTRAL INDIANA

CITY           SKY/WX    TMP DP  RH WIND       PRES   REMARKS
MUNCIE         LGT RAIN  50  46  86 W9        29.70R
RICHMOND +     LGT RAIN  48  48 100 W17G23    29.70R

$$

INZ060-061-067>069-081>083-085>088-240300-
SOUTHWEST INDIANA

CITY           SKY/WX    TMP DP  RH WIND       PRES   REMARKS
EVANSVILLE     CLOUDY    53  46  77 S5        29.81F
HUNTINGBURG +  CLOUDY    50  47  89 S9        29.81F

$$

INZ062-063-066-070>080-084-089>092-240300-
SOUTH CENTRAL AND SOUTHEAST INDIANA

CITY           SKY/WX    TMP DP  RH WIND       PRES   REMARKS
BLOOMINGTON    CLOUDY    49  45  86 SW7       29.77R
MADISON *+     MOCLDY    46  45  93 W6        29.80R

$$





USA.gov is the U.S. government's official web portal to all federal, state and local government web resources and services.